Tracking 27086 objects as of 22-Mar-2023
HD Live streaming from Space Station
objects crossing your sky now

STARLINK-5215

Track STARLINK-5215 now!
10-day predictions
STARLINK-5215 is classified as:


NORAD ID: 54759
Int'l Code: 2022-175B
Perigee: 545.7 km
Apogee: 548.0 km
Inclination: 53.2 °
Period: 95.4 minutes
Semi major axis: 6917 km
RCS: Unknown
Launch date: December 17, 2022
Source: United States (US)
Launch site: AIR FORCE EASTERN TEST RANGE (AFETR)
Your satellite tracking list
Your tracking list is empty




NASA's NSSDC Master Catalog

Two Line Element Set (TLE):
1 54759U 22175B   23081.56167039  .00000243  00000-0  33362-4 0  9998
2 54759  53.2191 221.4693 0001631  85.7856 274.3323 15.08842270 14310
Source of the keplerian elements: AFSPC